Main page
METAR-TAF:

METAR-TAF

Airports :

Aghajari, Iran

latitude: 30-46N, longitude: 049-40E, elevation: 29 m

Current weather observation

The report was made 37 minutes ago, at 19:00 UTC
Wind 8 kt from the Northwest
Temperature 13°C
Humidity 72%
Pressure 1021 hPa
Visibility 10 km or more
no clouds below 1500 m and no cumulonimbus

METAR: OIAG 171900Z 31008KT CAVOK 13/08 Q1021

Time: 23:07 (19:37 UTC)


TAF: missing

Weather observations and forecasts of more than 4000 airports (METAR and TAF reports).

The available stations are represented by yellow and red dots on the map.

Hover mouse over dot to see the name of the station.

Then click to see weather observations and forecasts.

To change the map : click on the green buttons with a black cross to zoom in, on the green button with a dash to zoom out, or on the green arrows for adjacent maps.


METAR-TAF: